Wind_Speed
18 20 23 25 27 28 30 32 33 35 40 43 44 44 45 46 44 42 44 44 44 44 42 41 39 38 37 36 35 34 34 32 31 30 30 31 32 30 29 28 27 28 28 28
19 22 23 24 27 30 32 34 36 38 40 44 46 45 45 47 46 45 44 45 45 44 43 42 40 39 38 38 37 36 35 34 34 33 33 35 36 35 32 30 29 29 30 29
18 22 23 26 28 29 30 34 37 38 39 41 42 43 40 40 43 44 43 43 43 41 40 39 37 37 37 36 36 36 35 34 34 34 35 37 37 36 35 33 31 31 32 32
16 17 19 21 24 25 26 30 32 33 35 36 37 38 32 33 37 40 40 39 36 35 35 34 34 33 33 33 33 33 32 33 33 34 35 37 39 39 38 38 37 36 35 35
16 18 19 22 24 25 26 28 30 31 33 33 31 31 30 33 37 36 35 34 32 31 31 30 30 30 30 30 30 30 30 31 32 34 35 37 40 40 40 41 41 40 39 38
16 18 20 23 24 26 28 28 29 29 26 23 21 22 28 34 37 36 33 32 31 30 30 30 30 30 30 30 30 30 31 32 33 35 37 38 39 42 44 45 44 42 41 41
19 18 20 22 24 25 26 27 27 22 17 16 18 20 29 33 36 38 37 36 34 32 32 31 31 32 32 32 32 33 33 35 36 38 39 40 40 42 44 45 45 43 42 40
21 22 21 22 23 24 24 25 24 21 17 13 15 17 21 26 31 34 35 35 34 34 33 32 32 32 32 33 34 35 36 38 39 40 41 41 41 41 43 43 43 41 40 38
20 20 21 22 23 23 24 23 22 18 15 11 12 14 16 20 22 25 27 27 28 28 28 28 29 30 30 31 32 34 35 37 37 37 37 37 37 38 39 39 39 39 38 38
20 19 20 22 23 24 24 23 21 17 15 11 11 13 15 15 16 17 18 20 21 21 21 22 23 24 25 26 28 30 30 31 30 30 31 31 31 33 34 35 35 35 36 36
21 21 20 21 24 24 23 23 21 18 16 14 13 14 15 13 11 7 7 10 12 14 14 15 15 16 17 18 20 22 23 23 23 24 25 26 27 27 29 30 31 33 32 31
21 20 20 21 23 23 24 23 21 20 18 17 16 15 14 12 9 6 4 3 5 7 7 6 6 6 7 9 10 12 13 15 17 17 17 17 18 18 18 19 19 17 16 15
22 21 22 24 25 25 23 22 22 22 21 19 18 17 16 13 11 9 7 3 3 4 4 3 3 3 4 3 3 3 2 3 3 3 4 5 5 6 6 6 6 6 6 6
23 22 21 21 21 21 21 23 23 22 21 21 20 19 19 17 15 13 11 10 11 10 10 10 10 10 10 9 9 9 9 8 8 7 5 5 4 4 3 2 0 1 1 2
25 23 21 19 20 20 20 22 23 23 23 22 21 20 19 19 17 16 16 15 15 15 14 14 15 15 14 14 14 14 14 13 12 11 9 8 7 6 5 5 4 4 5 6
28 25 22 21 21 20 20 21 22 22 23 24 22 21 21 20 20 19 18 18 18 18 17 16 16 16 16 16 15 15 14 13 12 11 10 9 8 7 7 7 7 8 9 10
29 28 26 23 20 19 21 21 21 21 21 22 22 22 22 22 22 22 22 20 20 19 19 18 17 17 16 16 15 14 13 13 12 10 10 9 8 8 8 9 10 11 12 13
31 29 26 23 21 20 19 18 18 18 19 20 20 20 20 20 21 21 22 21 20 19 19 18 17 17 16 16 15 15 14 14 13 12 11 10 10 10 10 11 11 12 14 15
30 30 28 25 21 18 16 16 16 17 17 18 19 19 19 18 19 20 20 19 19 18 18 18 17 16 16 16 16 16 16 15 15 14 14 13 13 12 12 12 13 14 14 15
28 29 28 26 23 19 16 14 14 14 15 16 17 17 17 17 19 20 19 19 18 18 18 18 17 17 17 17 17 17 17 17 17 17 16 16 15 15 15 15 15 15 15 15
25 28 28 27 24 22 18 15 13 13 14 14 14 15 15 16 17 18 18 18 18 18 18 18 18 18 18 18 18 18 19 19 19 19 19 19 19 19 18 18 18 17 16 16
23 25 27 26 25 22 20 16 14 13 12 13 13 13 13 14 15 16 16 17 17 16 17 17 18 18 18 18 18 19 19 19 19 20 20 21 21 21 21 21 21 20 18 17
19 22 24 25 24 23 22 18 15 13 12 12 12 12 12 13 14 14 15 15 15 15 16 16 17 17 17 18 18 18 18 18 19 19 20 21 22 22 22 22 22 21 21 19
15 18 20 22 23 22 22 20 17 14 12 12 11 11 11 11 12 12 13 13 13 14 14 15 15 16 16 17 17 17 17 18 18 19 20 22 23 23 24 23 22 22 22 21
12 14 16 18 20 21 20 20 18 16 13 12 11 10 10 10 10 10 11 11 12 12 12 13 13 14 15 16 17 17 17 17 18 19 20 22 23 24 25 25 24 23 23 23
10 11 12 14 16 18 18 18 18 17 15 13 11 10 10 9 8 8 8 9 10 10 10 11 12 13 14 15 16 17 17 18 19 20 21 22 23 24 25 26 25 24 24 25
Wind_Direction
290 288 290 293 292 288 285 281 276 272 270 269 273 276 275 273 271 269 268 268 267 268 268 269 269 269 270 271 272 273 275 275 275 275 275 275 274 273 275 276 277 277 277 275
303 299 303 301 295 291 288 285 280 276 273 273 274 275 274 274 273 271 270 269 268 268 267 267 267 267 267 268 270 272 273 274 275 275 274 273 272 272 273 275 277 276 277 277
307 309 310 305 301 299 297 290 287 285 282 278 276 274 275 275 274 271 269 268 268 267 266 265 263 262 263 264 265 267 269 271 273 274 275 273 272 273 274 274 275 276 277 277
319 319 316 313 311 312 309 303 300 295 287 280 273 270 269 266 266 270 271 269 267 265 263 261 259 258 258 260 261 263 266 270 273 275 275 274 277 276 274 274 275 276 278 279
337 330 325 321 318 316 315 313 308 303 296 285 274 264 258 254 256 259 260 261 261 258 256 255 253 253 253 254 256 260 264 269 273 276 277 276 276 273 272 273 275 276 279 281
340 332 327 327 323 321 319 318 317 314 307 295 279 257 250 247 249 248 255 258 258 255 253 253 252 252 253 255 257 260 265 269 274 276 277 275 273 272 272 274 276 276 279 281
348 345 340 337 332 329 327 327 329 329 314 294 277 255 250 251 250 250 255 258 258 257 256 255 254 253 254 257 259 263 267 270 274 276 276 274 271 270 270 272 274 277 280 282
350 349 346 342 340 341 340 339 340 338 330 302 282 269 260 256 254 252 254 256 259 261 259 256 254 254 256 259 262 265 268 271 273 274 274 273 270 268 267 270 274 278 283 286
353 351 349 348 349 350 349 350 349 345 343 331 307 293 286 279 274 260 256 259 259 257 255 254 254 254 257 260 264 267 269 271 273 274 274 272 269 267 268 269 274 277 280 282
359 358 358 357 358 358 358 358 356 354 355 349 324 309 304 304 296 283 272 261 254 251 251 252 255 258 261 263 266 267 269 270 271 271 271 270 268 268 267 269 271 272 274 274
3 5 6 5 5 4 5 5 4 5 5 359 348 337 333 329 326 312 276 256 243 243 247 252 258 262 266 270 270 271 271 270 270 269 269 269 268 267 266 266 267 267 266 265
7 7 13 15 11 11 12 13 16 20 18 13 8 1 358 359 358 358 341 271 224 223 234 246 249 256 265 270 278 280 273 269 268 268 268 266 265 263 260 259 259 256 249 243
12 11 12 14 15 16 16 21 26 30 28 28 30 32 29 24 29 35 37 57 89 99 101 76 57 50 50 51 37 13 326 296 284 273 258 238 236 240 237 234 228 216 211 216
18 18 17 14 14 16 21 26 30 32 33 35 41 43 41 43 48 50 56 68 64 60 58 54 50 48 48 51 53 49 50 52 57 59 63 69 77 83 77 61 63 197 231 250
22 22 20 19 20 20 25 30 33 36 38 41 44 44 43 46 52 56 61 61 53 52 54 52 50 52 54 55 55 52 49 48 49 47 43 43 42 36 27 11 353 333 314 296
24 23 22 25 25 24 30 34 35 38 40 44 46 48 47 51 55 54 53 53 52 51 52 51 51 53 54 53 51 49 46 44 42 37 31 25 17 9 355 339 325 313 302 294
24 23 23 26 27 30 35 35 38 42 44 46 48 51 52 54 56 58 59 58 56 55 54 53 55 54 52 49 46 43 40 38 35 29 23 15 5 354 341 328 317 308 300 294
25 25 25 27 29 33 32 34 38 41 44 47 48 50 52 53 56 59 58 56 54 53 52 49 47 46 46 44 42 40 38 35 31 27 22 15 6 356 345 334 325 316 307 299
25 26 27 29 31 33 31 33 36 39 43 46 47 49 52 55 57 56 54 52 50 49 48 46 45 44 44 44 43 41 39 38 36 33 28 22 15 6 355 344 335 326 318 310
25 25 27 30 31 31 30 31 33 36 43 44 45 46 50 52 53 52 51 50 49 49 49 48 47 47 48 48 46 44 43 42 39 36 32 28 22 16 9 1 352 342 333 324
23 24 26 28 30 31 30 29 31 36 40 43 44 45 46 48 50 50 50 49 50 51 51 49 49 51 51 51 49 47 45 43 40 37 34 30 25 20 14 8 1 354 347 338
22 23 25 26 28 28 27 28 30 34 35 39 41 41 43 47 48 48 48 48 49 51 52 52 53 54 53 51 50 48 46 43 40 36 31 27 22 18 12 9 6 2 357 350
20 22 24 25 26 26 27 27 29 31 31 33 36 37 40 43 46 47 48 48 50 52 53 53 53 52 51 50 48 45 42 39 35 31 27 23 20 17 14 13 11 10 7 4
13 17 21 23 23 24 26 27 28 30 31 31 31 33 35 39 42 45 46 47 49 52 53 52 51 50 48 46 42 40 37 34 30 27 24 22 20 19 18 17 16 16 17 19
1 8 13 17 21 24 26 27 28 29 30 30 28 27 29 35 40 44 45 46 48 51 50 49 47 44 42 38 34 32 30 28 26 25 24 22 22 22 22 22 23 24 27 28
343 353 1 9 15 20 24 26 27 29 29 29 28 26 26 29 35 40 42 42 43 46 45 43 40 37 34 31 28 26 25 25 25 24 23 22 23 24 26 27 29 32 34 35
Height
5879 5878 5876 5875 5873 5872 5870 5869 5868 5867 5864 5862 5861 5861 5858 5857 5860 5862 5861 5862 5862 5864 5866 5868 5870 5870 5871 5871 5872 5873 5874 5875 5875 5876 5876 5875 5875 5875 5876 5876 5877 5876 5876 5876
5875 5873 5872 5870 5867 5865 5863 5860 5858 5857 5855 5853 5852 5852 5850 5847 5848 5850 5851 5851 5852 5855 5856 5858 5860 5861 5863 5863 5864 5865 5866 5866 5868 5868 5868 5867 5866 5867 5868 5869 5870 5870 5869 5869
5872 5869 5866 5864 5860 5857 5854 5850 5847 5845 5844 5842 5841 5841 5841 5837 5836 5837 5839 5840 5842 5844 5846 5848 5850 5852 5853 5854 5855 5856 5857 5858 5859 5859 5859 5857 5856 5858 5859 5860 5861 5862 5862 5861
5869 5865 5862 5859 5854 5850 5847 5841 5838 5834 5831 5831 5831 5829 5832 5828 5825 5825 5827 5829 5831 5834 5836 5838 5840 5842 5844 5846 5847 5848 5849 5850 5850 5850 5850 5848 5847 5847 5849 5850 5851 5853 5853 5853
5864 5861 5858 5854 5849 5845 5840 5835 5830 5824 5819 5817 5818 5819 5821 5819 5816 5817 5817 5818 5821 5824 5826 5829 5831 5833 5835 5837 5839 5840 5841 5842 5842 5843 5842 5841 5841 5839 5839 5840 5840 5841 5842 5843
5862 5858 5854 5849 5844 5839 5834 5829 5823 5816 5810 5808 5808 5810 5810 5808 5807 5808 5808 5808 5811 5814 5817 5820 5823 5825 5827 5829 5831 5832 5833 5834 5834 5834 5834 5834 5833 5832 5831 5831 5830 5830 5832 5833
5859 5855 5850 5845 5840 5835 5829 5823 5817 5810 5806 5804 5802 5801 5801 5799 5799 5801 5800 5801 5803 5806 5809 5812 5814 5816 5818 5821 5822 5824 5824 5825 5825 5825 5824 5824 5824 5824 5823 5823 5823 5823 5823 5824
5857 5853 5848 5843 5837 5831 5825 5819 5813 5808 5803 5800 5798 5796 5796 5793 5792 5793 5793 5794 5796 5798 5801 5803 5805 5807 5809 5811 5813 5814 5814 5815 5815 5815 5814 5814 5814 5814 5814 5814 5814 5815 5816 5816
5856 5851 5846 5840 5835 5829 5823 5817 5811 5806 5801 5798 5796 5793 5791 5789 5787 5786 5786 5788 5790 5791 5793 5795 5797 5799 5801 5802 5803 5804 5804 5804 5804 5804 5803 5803 5803 5804 5805 5805 5806 5807 5807 5808
5855 5850 5845 5840 5834 5828 5822 5816 5811 5806 5801 5798 5796 5792 5790 5786 5784 5782 5782 5783 5784 5786 5787 5789 5791 5792 5793 5794 5794 5794 5794 5794 5794 5794 5794 5794 5795 5795 5796 5797 5798 5799 5799 5799
5854 5850 5845 5839 5833 5828 5823 5817 5811 5806 5801 5798 5795 5794 5788 5784 5782 5780 5780 5780 5781 5783 5784 5786 5787 5787 5788 5788 5788 5787 5787 5787 5787 5787 5787 5787 5787 5787 5788 5789 5790 5790 5790 5791
5854 5850 5845 5840 5835 5829 5823 5817 5812 5808 5803 5799 5796 5796 5788 5785 5782 5780 5779 5780 5781 5782 5783 5784 5784 5784 5784 5784 5784 5783 5782 5782 5782 5782 5782 5782 5782 5782 5782 5783 5783 5784 5784 5784
5854 5850 5844 5839 5836 5831 5825 5820 5814 5810 5806 5802 5798 5798 5791 5788 5785 5783 5782 5782 5783 5784 5784 5784 5784 5783 5783 5783 5782 5782 5781 5780 5780 5780 5780 5780 5780 5780 5780 5781 5781 5781 5782 5783
5855 5850 5846 5842 5837 5832 5827 5822 5817 5813 5809 5805 5801 5799 5796 5793 5790 5788 5787 5786 5786 5786 5786 5785 5785 5785 5784 5784 5783 5782 5782 5781 5781 5780 5781 5780 5780 5780 5780 5780 5781 5781 5781 5782
5857 5852 5847 5842 5838 5834 5829 5825 5821 5817 5813 5809 5806 5803 5801 5798 5795 5793 5792 5791 5791 5790 5789 5789 5788 5788 5787 5786 5785 5785 5785 5784 5783 5783 5782 5782 5781 5781 5781 5781 5781 5781 5781 5781
5859 5854 5849 5844 5840 5836 5832 5828 5824 5821 5817 5814 5811 5809 5806 5803 5801 5799 5797 5796 5796 5794 5793 5793 5792 5791 5790 5789 5789 5788 5787 5787 5786 5785 5784 5783 5783 5782 5782 5781 5781 5781 5780 5780
5861 5856 5850 5846 5842 5839 5835 5832 5828 5825 5822 5819 5816 5814 5811 5808 5806 5804 5802 5801 5800 5799 5798 5797 5795 5794 5793 5792 5791 5791 5789 5788 5787 5786 5785 5784 5783 5782 5781 5780 5779 5778 5777 5776
5864 5859 5854 5849 5845 5841 5841 5835 5833 5830 5827 5824 5821 5819 5816 5814 5812 5809 5808 5806 5805 5804 5802 5800 5799 5798 5796 5795 5794 5793 5791 5790 5788 5787 5786 5784 5783 5781 5780 5778 5777 5775 5773 5772
5867 5862 5857 5852 5848 5845 5842 5839 5836 5834 5831 5828 5826 5823 5821 5819 5816 5814 5812 5811 5809 5808 5806 5804 5803 5801 5799 5798 5797 5795 5794 5792 5790 5788 5786 5784 5782 5781 5779 5776 5774 5772 5770 5767
5871 5866 5861 5855 5851 5848 5846 5842 5840 5838 5835 5832 5830 5828 5826 5824 5821 5820 5817 5815 5813 5812 5810 5808 5806 5805 5803 5801 5800 5798 5796 5794 5792 5790 5788 5785 5783 5781 5778 5775 5772 5769 5766 5763
5874 5869 5864 5859 5855 5851 5848 5845 5843 5842 5840 5836 5834 5832 5830 5828 5826 5824 5822 5820 5818 5816 5814 5812 5810 5808 5807 5805 5803 5801 5799 5797 5794 5792 5790 5787 5784 5781 5778 5775 5771 5767 5763 5760
5876 5872 5868 5863 5859 5857 5851 5848 5846 5845 5841 5839 5837 5836 5834 5832 5830 5828 5826 5824 5822 5820 5819 5816 5814 5813 5811 5809 5807 5805 5803 5800 5798 5795 5792 5789 5786 5783 5779 5774 5770 5766 5761 5757
5878 5875 5871 5868 5865 5860 5855 5852 5849 5846 5844 5842 5840 5839 5837 5835 5834 5832 5830 5828 5827 5825 5823 5821 5819 5817 5815 5813 5811 5808 5806 5803 5801 5798 5795 5792 5788 5784 5780 5775 5771 5766 5761 5756
5880 5877 5874 5870 5867 5863 5859 5855 5852 5849 5847 5845 5843 5841 5840 5838 5837 5835 5834 5832 5830 5829 5827 5825 5823 5821 5819 5817 5815 5812 5809 5807 5804 5801 5798 5794 5790 5786 5781 5777 5772 5767 5762 5757
5880 5878 5875 5873 5869 5865 5862 5858 5855 5852 5849 5847 5845 5844 5842 5840 5839 5838 5837 5835 5834 5832 5831 5829 5827 5825 5823 5821 5818 5815 5813 5810 5807 5804 5800 5797 5793 5789 5784 5779 5774 5769 5764 5759
5879 5878 5876 5874 5871 5868 5865 5862 5858 5855 5852 5850 5848 5846 5844 5843 5841 5840 5839 5838 5837 5835 5834 5832 5830 5828 5826 5824 5821 5818 5815 5812 5809 5806 5803 5799 5795 5791 5787 5782 5777 5772 5768 5763